EN

Hourly Weather Pervomaevka

Today, 26 November, Thursday

Time Temperature Precipitation Wind Pressure Humidity
00:00 -1°C° 0 mm 1 mps 693 mmHg 81%
01:00 -4°C° 0 mm 2 mps 693 mmHg 79%
02:00 -4°C° 0 mm 2 mps 693 mmHg 76%
03:00 -4°C° 0 mm 2 mps 693 mmHg 73%
04:00 -4°C° 0 mm 2 mps 693 mmHg 70%
05:00 -4°C° 0 mm 2 mps 693 mmHg 67%
06:00 -4°C° 0 mm 2 mps 693 mmHg 65%
07:00 -5°C° 0 mm 3 mps 693 mmHg 62%
08:00 -5°C° 0 mm 3 mps 693 mmHg 60%
09:00 -2°C° 0 mm 3 mps 693 mmHg 62%
10:00 +1°C° 0 mm 2 mps 693 mmHg 64%
11:00 +2°C° 0 mm 2 mps 693 mmHg 66%
12:00 +3°C° 0 mm 2 mps 693 mmHg 67%
13:00 +3°C° 0 mm 2 mps 693 mmHg 68%
14:00 +4°C° 0 mm 2 mps 693 mmHg 69%
15:00 +4°C° 0 mm 2 mps 693 mmHg 66%
16:00 +3°C° 0 mm 2 mps 692 mmHg 62%
17:00 +3°C° 0 mm 2 mps 692 mmHg 59%
18:00 +3°C° 0 mm 2 mps 692 mmHg 58%
19:00 +3°C° 0 mm 2 mps 692 mmHg 57%
20:00 +3°C° 0 mm 2 mps 692 mmHg 56%
21:00 +3°C° 0 mm 2 mps 692 mmHg 55%
22:00 +3°C° 0 mm 3 mps 692 mmHg 54%
23:00 +3°C° 0 mm 3 mps 692 mmHg 53%

Tomorrow, 27 November, Friday

Time Temperature Precipitation Wind Pressure Humidity
00:00 +3°C° 0 mm 3 mps 691 mmHg 53%
01:00 +4°C° 0 mm 2 mps 691 mmHg 52%
02:00 +5°C° 0 mm 2 mps 691 mmHg 52%
03:00 +5°C° 0 mm 2 mps 691 mmHg 53%
04:00 +4°C° 0 mm 2 mps 691 mmHg 53%
05:00 +3°C° 0 mm 3 mps 690 mmHg 54%
06:00 +4°C° 0 mm 3 mps 690 mmHg 56%
07:00 +4°C° 0 mm 3 mps 690 mmHg 57%
08:00 +4°C° 0 mm 4 mps 690 mmHg 59%
09:00 +5°C° 0 mm 3 mps 690 mmHg 62%
10:00 +7°C° 0 mm 3 mps 690 mmHg 65%
11:00 +7°C° 0 mm 3 mps 690 mmHg 68%
12:00 +7°C° 0 mm 2 mps 689 mmHg 67%
13:00 +7°C° 0 mm 2 mps 689 mmHg 67%
14:00 +8°C° 0 mm 2 mps 689 mmHg 67%
15:00 +7°C° 0 mm 2 mps 689 mmHg 65%
16:00 +6°C° 0 mm 2 mps 689 mmHg 63%
17:00 +6°C° 0 mm 2 mps 689 mmHg 61%
18:00 +6°C° 0.1 mm 2 mps 690 mmHg 61%
19:00 +5°C° 0.1 mm 2 mps 690 mmHg 61%
20:00 +5°C° 0.1 mm 2 mps 690 mmHg 61%
21:00 +5°C° 0.1 mm 2 mps 690 mmHg 63%
22:00 +5°C° 0.1 mm 2 mps 690 mmHg 65%
23:00 +5°C° 0.1 mm 2 mps 690 mmHg 67%

Day after tomorrow, 28 November, Saturday

Time Temperature Precipitation Wind Pressure Humidity
00:00 +5°C° 0.2 mm 2 mps 690 mmHg 70%
01:00 +4°C° 0.2 mm 2 mps 690 mmHg 72%
02:00 +4°C° 0.2 mm 2 mps 691 mmHg 75%
03:00 +1°C° 1.3 mm 4 mps 692 mmHg 82%
04:00 0°C° 1.3 mm 5 mps 692 mmHg 89%
05:00 -2°C° 1.3 mm 7 mps 693 mmHg 96%
06:00 -2°C° 3.6 mm 7 mps 694 mmHg 97%
07:00 -3°C° 3.6 mm 7 mps 696 mmHg 97%
08:00 -3°C° 3.6 mm 7 mps 697 mmHg 98%
09:00 -3°C° 1 mm 6 mps 698 mmHg 97%
10:00 -3°C° 1 mm 6 mps 699 mmHg 96%
11:00 -3°C° 1 mm 6 mps 699 mmHg 95%
12:00 -3°C° 0.1 mm 6 mps 700 mmHg 93%
13:00 -2°C° 0.1 mm 5 mps 700 mmHg 92%
14:00 -2°C° 0.1 mm 5 mps 700 mmHg 90%
15:00 -3°C° 0 mm 4 mps 700 mmHg 90%
16:00 -4°C° 0 mm 3 mps 700 mmHg 89%
17:00 -5°C° 0 mm 2 mps 700 mmHg 89%
18:00 -5°C° 0 mm 2 mps 701 mmHg 85%
19:00 -5°C° 0 mm 2 mps 701 mmHg 80%
20:00 -4°C° 0 mm 1 mps 701 mmHg 76%
21:00 -4°C° 0 mm 1 mps 701 mmHg 74%
22:00 -4°C° 0 mm 1 mps 701 mmHg 71%
23:00 -4°C° 0 mm 1 mps 701 mmHg 69%

29 November, Sunday

Time Temperature Precipitation Wind Pressure Humidity
00:00 -6°C° 0 mm 2 mps 701 mmHg 65%
01:00 -6°C° 0 mm 2 mps 701 mmHg 62%
02:00 -6°C° 0 mm 2 mps 701 mmHg 59%
03:00 -7°C° 0 mm 2 mps 701 mmHg 56%
04:00 -7°C° 0 mm 2 mps 701 mmHg 53%
05:00 -7°C° 0 mm 2 mps 701 mmHg 50%
06:00 -7°C° 0 mm 2 mps 701 mmHg 48%
07:00 -7°C° 0 mm 2 mps 701 mmHg 46%
08:00 -7°C° 0 mm 2 mps 701 mmHg 44%
09:00 -5°C° 0 mm 2 mps 701 mmHg 49%
10:00 -1°C° 0 mm 1 mps 701 mmHg 55%
11:00 0°C° 0 mm 1 mps 701 mmHg 60%
12:00 +1°C° 0 mm 1 mps 701 mmHg 62%
13:00 +1°C° 0 mm 1 mps 700 mmHg 64%
14:00 +1°C° 0 mm 1 mps 700 mmHg 66%
15:00 0°C° 0 mm 1 mps 700 mmHg 60%
16:00 -1°C° 0 mm 1 mps 699 mmHg 54%
17:00 -3°C° 0 mm 1 mps 699 mmHg 48%
18:00 -3°C° 0 mm 1 mps 699 mmHg 44%
19:00 -3°C° 0 mm 1 mps 699 mmHg 40%
20:00 -3°C° 0 mm 1 mps 699 mmHg 35%
21:00 -3°C° 0 mm 1 mps 699 mmHg 34%
22:00 -3°C° 0 mm 1 mps 699 mmHg 33%
23:00 -3°C° 0 mm 1 mps 698 mmHg 32%

30 November, Monday

Time Temperature Precipitation Wind Pressure Humidity
00:00 -3°C° 0 mm 1 mps 698 mmHg 31%
01:00 -3°C° 0 mm 1 mps 698 mmHg 30%
02:00 -3°C° 0 mm 1 mps 698 mmHg 30%
03:00 -2°C° 0 mm 1 mps 698 mmHg 30%
04:00 -4°C° 0 mm 2 mps 697 mmHg 30%
05:00 -4°C° 0 mm 2 mps 697 mmHg 31%
06:00 -4°C° 0 mm 2 mps 697 mmHg 32%
07:00 -4°C° 0 mm 2 mps 697 mmHg 33%
08:00 -4°C° 0 mm 2 mps 697 mmHg 34%
09:00 0°C° 0 mm 1 mps 697 mmHg 42%
10:00 +1°C° 0 mm 1 mps 697 mmHg 50%
11:00 +3°C° 0 mm 1 mps 697 mmHg 57%
12:00 +3°C° 0 mm 1 mps 697 mmHg 59%
13:00 +3°C° 0 mm 1 mps 696 mmHg 61%
14:00 +3°C° 0 mm 1 mps 696 mmHg 63%
15:00 +1°C° 0 mm 2 mps 695 mmHg 57%
16:00 -1°C° 0 mm 2 mps 695 mmHg 52%
17:00 -2°C° 0 mm 2 mps 694 mmHg 46%
18:00 -2°C° 0 mm 2 mps 694 mmHg 43%
19:00 -2°C° 0 mm 2 mps 694 mmHg 39%
20:00 -2°C° 0 mm 2 mps 694 mmHg 35%
21:00 -1°C° 0 mm 2 mps 694 mmHg 35%
22:00 -1°C° 0 mm 2 mps 693 mmHg 35%
23:00 -1°C° 0 mm 2 mps 693 mmHg 35%

1 December, Tuesday

Time Temperature Precipitation Wind Pressure Humidity
00:00 -1°C° 0 mm 2 mps 693 mmHg 34%
01:00 -1°C° 0 mm 2 mps 693 mmHg 33%
02:00 -1°C° 0 mm 2 mps 692 mmHg 32%
03:00 -1°C° 0 mm 2 mps 692 mmHg 33%
04:00 +1°C° 0 mm 1 mps 692 mmHg 34%
05:00 +1°C° 0 mm 1 mps 692 mmHg 34%
06:00 +2°C° 0 mm 1 mps 692 mmHg 36%
07:00 +2°C° 0 mm 1 mps 691 mmHg 38%
08:00 +2°C° 0 mm 1 mps 691 mmHg 40%
09:00 +3°C° 0 mm 1 mps 692 mmHg 47%
10:00 +3°C° 0 mm 0 mps 692 mmHg 54%
11:00 +4°C° 0 mm 0 mps 692 mmHg 61%
12:00 +4°C° 0 mm 0 mps 692 mmHg 63%
13:00 +5°C° 0 mm 1 mps 692 mmHg 64%
14:00 +5°C° 0 mm 1 mps 692 mmHg 66%
15:00 +4°C° 0 mm 1 mps 692 mmHg 66%
16:00 +3°C° 0 mm 1 mps 692 mmHg 66%
17:00 +2°C° 0 mm 1 mps 692 mmHg 66%
18:00 +2°C° 0 mm 1 mps 692 mmHg 66%
19:00 +2°C° 0 mm 1 mps 692 mmHg 65%
20:00 +2°C° 0 mm 1 mps 692 mmHg 65%
21:00 +2°C° 0.1 mm 1 mps 692 mmHg 71%
22:00 +2°C° 0.1 mm 1 mps 693 mmHg 78%
23:00 +2°C° 0.1 mm 1 mps 693 mmHg 85%
Show more

We Need Your Consent

Meteoprog and our Service Providers may store and access personal data such as cookies, device identifiers or other similar technologies on your device and process such data to personalise content and ads, as well as provide social media features and to analyse the traffic.

  • Store and/or access information on your device

    Cookies, device identifiers or other information can be stored or accessed on your device for the purposes indicated above.

  • Personalised ads and content, ad and content measurement, audience insights, and products development

    Ads and content can be personalised based on a profile. More data can be added to better personalise ads and content. Ad and content performance can be measured. Insights about the audience who saw the ads and content can be derived. Such data can be used to develop or improve user’s experience, systems and software.

By clicking ‘I Agree’ you will allow the use of indicated cookies, device identifiers, web beacons or other similar technologies. Your settings can be changed in the browser on your device.

For certain purposes, legitimate interests may be relied on, rather than consent. You can read more about this in our Privacy and Cookie Policy.